sat.trackr.live / text

‹ back to catalog

STARLINK-31206

NORAD 59028 · 2024-038F

PAYLOAD ACTIVE UNKNOWN

§ Identity

Operator
Country
US
Launch date
2024-02-25
Launch site
AFETR
Launch vehicle
Mass (kg)
RCS (m²)

Purposes: comms

External: N2YO · Heavens-Above · Gunter

§ Orbital elements

Epoch: 2026-05-24T23:32:09.989088Z

Period
94.27 min
Inclination
43.0005°
Eccentricity
0.0001169
Mean motion
15.27585853 rev/d
Perigee alt
482.2 km
Apogee alt
483.8 km
Semi-major
6,861.2 km
B*
-6.7940e-5
RAAN
251.1675°
Arg perigee
263.9754°
Mean anomaly
96.0964°
Rev number
12,719

§ Raw data

STARLINK-312061 59028U 24038F   26144.98067117 -.00002131  00000+0 -67940-4 0  99952 59028  43.0005 251.1675 0001169 263.9754  96.0964 15.27585853127191

JSON: /api/v1/satellites/59028 · /tle

For live sub-satellite position, see the globe view (requires WebGL).

§ Visibility from observer

Set your observer location to see the next 7 days of passes ≥ 10°. The values pass through the URL so the page stays shareable.

No JS? Fill the form by hand. The geolocation button needs JavaScript.